Content
SEND FEEDBACK

Daily
Averages
Monthly
Summary
United States of America

MANGILAO, GUAM


Home > North America > United States > Guam
Elevation: 18 meters     Latitude: 13 27N     Longitude: 144 49E

WEATHER
 
SELECT A DAY
Number of Records: 341,631;   Date Range: 1/1/95 - 7/20/14
 
SHARE

PRINT THIS DATA

[ ← Previous Day ]
WEATHER ALMANAC - 3 MARCH, 2013
[ Next Day → ]
[ °F ]   °C
Weather ElementAverageHighLow
Temperature26.7 °C29 °C (9:50 am)25.6 °C (6:55 am)
Dewpoint23.7 °C24.2 °C (1:55 pm)23 °C (6:42 am)
Humidity83.4 %90 % (12:55 am)73 % (12:55 pm)
Barometer1009.1 hPa1010.5 hPa (9:18 am)1007.5 hPa (2:55 pm)
Wind Speed17.9 km/h22.2 km/h (11:08 am)
Weather ElementAverage
Visibility16.1 km
Wind DirectionENE (79.7 °)

Weather ElementTotal
Precipitation---
Cooling Degree Days9 (Base 18.3)
Growing Degree Days17.3 (Base 10)
Averaged from 145 records on 3 March, 2013
WEATHER CONDITIONS BREAKOUT
WIND DIRECTION BREAKOUT
WEATHER BY HOUR - 3 MARCH, 2013
[ °F ]   °C
Local TimeTemperatureDewpointHumidityBarometerVisibilityWind DirectionWind SpeedGust SpeedPrecipitationEventsConditions
12:13 AM26 °C24 °C89 %1010.2 hPa16.1 kmENE (70°)14.8 km/hScattered Clouds
12:24 AM26 °C24 °C89 %1010.2 hPa16.1 kmENE (70°)13 km/hMostly Cloudy
12:41 AM26 °C24 °C89 %1009.8 hPa16.1 kmENE (70°)16.7 km/hMostly Cloudy
12:44 AM26 °C24 °C89 %1009.8 hPa16.1 kmEast (80°)13 km/hMostly Cloudy
12:55 AM25.8 °C24.1 °C90 %1009.8 hPa16.1 kmENE (70°)16.7 km/hMostly Cloudy
1:06 AM26 °C24 °C89 %1009.8 hPa16.1 kmEast (80°)14.8 km/hOvercast
1:07 AM26 °C24 °C89 %1009.8 hPa16.1 kmEast (80°)14.8 km/hOvercast
1:33 AM26 °C24 °C89 %1009.5 hPa16.1 kmENE (70°)18.5 km/hOvercast
1:36 AM26 °C24 °C89 %1009.5 hPa16.1 kmENE (70°)18.5 km/hOvercast
1:37 AM26 °C24 °C89 %1009.5 hPa16.1 kmENE (70°)16.7 km/hOvercast
1:41 AM26 °C24 °C89 %1009.1 hPa16.1 kmENE (60°)16.7 km/hOvercast
1:43 AM26 °C24 °C89 %1009.1 hPa16.1 kmENE (60°)14.8 km/hOvercast
1:44 AM26 °C24 °C89 %1009.1 hPa16.1 kmENE (70°)13 km/hOvercast
1:52 AM26 °C24 °C89 %1009.1 hPa16.1 kmENE (60°)16.7 km/hOvercast
1:53 AM26 °C24 °C89 %1009.1 hPa16.1 kmENE (60°)16.7 km/hOvercast
1:55 AM25.8 °C24.1 °C90 %1009.1 hPa16.1 kmENE (60°)16.7 km/hOvercast
2:04 AM26 °C24 °C89 %1009.1 hPa16.1 kmENE (60°)18.5 km/hOvercast
2:10 AM26 °C24 °C89 %1009.1 hPa16.1 kmENE (60°)18.5 km/hOvercast
2:15 AM26 °C24 °C89 %1009.1 hPa16.1 kmENE (70°)16.7 km/hOvercast
2:20 AM26 °C24 °C89 %1009.1 hPa16.1 kmENE (60°)14.8 km/hOvercast
2:31 AM26 °C24 °C89 %1008.8 hPa16.1 kmENE (70°)18.5 km/hMostly Cloudy
2:44 AM26 °C24 °C89 %1008.8 hPa16.1 kmENE (70°)14.8 km/hMostly Cloudy
2:50 AM26 °C24 °C89 %1008.8 hPa16.1 kmENE (70°)14.8 km/hScattered Clouds
2:55 AM25.7 °C23.8 °C89 %1008.8 hPa16.1 kmENE (70°)16.7 km/hScattered Clouds
3:05 AM26 °C24 °C89 %1008.5 hPa16.1 kmENE (70°)13 km/hMostly Cloudy
3:06 AM26 °C24 °C89 %1008.5 hPa16.1 kmENE (60°)14.8 km/hMostly Cloudy
3:38 AM26 °C24 °C89 %1008.5 hPa16.1 kmENE (70°)14.8 km/hMostly Cloudy
6:42 AM26 °C23 °C83 %1009.1 hPa16.1 kmEast (80°)13 km/hMostly Cloudy
6:55 AM25.6 °C23.5 °C88 %1009.1 hPa16.1 kmEast (80°)14.8 km/hMostly Cloudy
7:01 AM26 °C24 °C89 %1009.5 hPa16.1 kmEast (90°)14.8 km/hMostly Cloudy
7:04 AM26 °C24 °C89 %1009.5 hPa16.1 kmEast (90°)14.8 km/hOvercast
7:14 AM26 °C24 °C89 %1009.5 hPa16.1 kmEast (90°)18.5 km/hMostly Cloudy
7:32 AM26 °C24 °C89 %1009.5 hPa16.1 kmEast (80°)18.5 km/hMostly Cloudy
7:36 AM26 °C24 °C89 %1009.5 hPa16.1 kmEast (80°)16.7 km/hMostly Cloudy
7:46 AM26 °C24 °C89 %1009.8 hPa16.1 kmEast (90°)18.5 km/hMostly Cloudy
7:53 AM26 °C24 °C89 %1009.8 hPa16.1 kmEast (90°)16.7 km/hOvercast
7:55 AM26.3 °C23.8 °C86 %1009.8 hPa16.1 kmEast (80°)16.7 km/hOvercast
7:56 AM26 °C24 °C89 %1009.8 hPa16.1 kmEast (80°)16.7 km/hOvercast
7:57 AM26 °C24 °C89 %1009.8 hPa16.1 kmEast (80°)16.7 km/hOvercast
8:23 AM27 °C24 °C84 %1010.2 hPa16.1 kmEast (90°)18.5 km/hMostly Cloudy
8:31 AM27 °C24 °C84 %1010.2 hPa16.1 kmEast (80°)14.8 km/hMostly Cloudy
8:45 AM27 °C24 °C84 %1010.2 hPa16.1 kmENE (70°)20.4 km/hRainLight Rain
8:46 AM27 °C24 °C84 %1010.2 hPa16.1 kmENE (70°)20.4 km/hRainLight Rain
8:54 AM27 °C24 °C84 %1010.2 hPa16.1 kmENE (70°)18.5 km/hMostly Cloudy
8:55 AM27.2 °C23.9 °C82 %1010.2 hPa16.1 kmENE (70°)18.5 km/h0 mmMostly Cloudy
9:12 AM28 °C23 °C74 %1010.2 hPa16.1 kmEast (100°)16.7 km/hScattered Clouds
9:18 AM28 °C24 °C79 %1010.5 hPa16.1 kmEast (80°)13 km/hMostly Cloudy
9:20 AM28 °C24 °C79 %1010.5 hPa16.1 kmEast (80°)16.7 km/hScattered Clouds
9:22 AM28 °C24 °C79 %1010.5 hPa16.1 kmEast (90°)16.7 km/hMostly Cloudy
9:29 AM28 °C24 °C79 %1010.5 hPa16.1 kmEast (90°)20.4 km/hMostly Cloudy
9:32 AM28 °C24 °C79 %1010.5 hPa16.1 kmEast (80°)20.4 km/hScattered Clouds
9:39 AM28 °C24 °C79 %1010.5 hPa16.1 kmEast (80°)14.8 km/hMostly Cloudy
9:50 AM29 °C24 °C74 %1010.5 hPa16.1 kmEast (90°)16.7 km/hMostly Cloudy
9:55 AM28.3 °C23.7 °C76 %1010.5 hPa16.1 kmEast (80°)14.8 km/hMostly Cloudy
10:26 AM28 °C24 °C79 %1010.2 hPa16.1 kmENE (70°)20.4 km/hMostly Cloudy
10:31 AM28 °C24 °C79 %1010.2 hPa16.1 kmEast (80°)20.4 km/hScattered Clouds
10:33 AM28 °C24 °C79 %1010.2 hPa16.1 kmEast (80°)18.5 km/hMostly Cloudy
10:53 AM28 °C24 °C79 %1010.2 hPa16.1 kmENE (60°)20.4 km/hMostly Cloudy
10:55 AM28.4 °C24 °C77 %1010.2 hPa16.1 kmEast (80°)20.4 km/hMostly Cloudy
11:08 AM28 °C24 °C79 %1009.8 hPa16.1 kmEast (80°)22.2 km/hMostly Cloudy
11:16 AM28 °C24 °C79 %1009.8 hPa16.1 kmEast (80°)20.4 km/hMostly Cloudy
11:53 AM28 °C23 °C74 %1009.5 hPa16.1 kmENE (60°)18.5 km/hMostly Cloudy
11:54 AM28 °C23 °C74 %1009.5 hPa16.1 kmENE (60°)22.2 km/hMostly Cloudy
11:55 AM28.3 °C23.4 °C75 %1009.5 hPa16.1 kmENE (60°)20.4 km/hMostly Cloudy
11:58 AM28 °C24 °C79 %1009.5 hPa16.1 kmENE (70°)18.5 km/hMostly Cloudy
12:02 PM28 °C24 °C79 %1009.5 hPa16.1 kmEast (80°)18.5 km/hMostly Cloudy
12:03 PM28 °C24 °C79 %1009.5 hPa16.1 kmEast (80°)20.4 km/hMostly Cloudy
12:28 PM28 °C24 °C79 %1009.1 hPa16.1 kmENE (70°)22.2 km/hMostly Cloudy
12:29 PM28 °C24 °C79 %1009.1 hPa16.1 kmENE (70°)20.4 km/hMostly Cloudy
12:55 PM28.7 °C23.5 °C73 %1008.8 hPa16.1 kmENE (70°)20.4 km/hMostly Cloudy
1:05 PM28 °C24 °C79 %1008.5 hPa16.1 kmENE (70°)20.4 km/hScattered Clouds
1:06 PM28 °C24 °C79 %1008.5 hPa16.1 kmENE (70°)18.5 km/hMostly Cloudy
1:20 PM28 °C24 °C79 %1008.1 hPa16.1 kmEast (80°)16.7 km/hScattered Clouds
1:35 PM29 °C24 °C74 %1008.1 hPa16.1 kmEast (80°)18.5 km/hMostly Cloudy
1:36 PM29 °C24 °C74 %1008.1 hPa16.1 kmEast (80°)20.4 km/hMostly Cloudy
1:38 PM29 °C24 °C74 %1007.8 hPa16.1 kmEast (80°)20.4 km/hMostly Cloudy
1:39 PM28 °C24 °C79 %1007.8 hPa16.1 kmEast (80°)20.4 km/hMostly Cloudy
1:55 PM29 °C24.2 °C75 %1007.8 hPa16.1 kmEast (90°)20.4 km/hMostly Cloudy
2:55 PM27.8 °C23.8 °C79 %1007.5 hPa16.1 kmEast (90°)18.5 km/hOvercast
3:30 PM28 °C24 °C79 %1007.5 hPa16.1 kmEast (80°)18.5 km/hScattered Clouds
3:38 PM28 °C24 °C79 %1007.5 hPa16.1 kmEast (90°)22.2 km/hMostly Cloudy
3:55 PM28.2 °C23.6 °C76 %1007.5 hPa16.1 kmEast (90°)18.5 km/hMostly Cloudy
4:23 PM28 °C23 °C74 %1007.8 hPa16.1 kmEast (100°)20.4 km/hMostly Cloudy
4:25 PM28 °C23 °C74 %1007.8 hPa16.1 kmEast (90°)22.2 km/hScattered Clouds
4:37 PM28 °C24 °C79 %1007.8 hPa16.1 kmEast (80°)16.7 km/hMostly Cloudy
4:42 PM28 °C23 °C74 %1007.8 hPa16.1 kmEast (90°)20.4 km/hScattered Clouds
4:55 PM27 °C23.2 °C80 %1007.8 hPa16.1 kmEast (90°)14.8 km/hScattered Clouds
4:59 PM27 °C23 °C79 %1007.8 hPa16.1 kmEast (100°)14.8 km/hMostly Cloudy
5:03 PM27 °C23 °C79 %1007.8 hPa16.1 kmEast (100°)18.5 km/hScattered Clouds
5:16 PM27 °C24 °C84 %1008.1 hPa16.1 kmEast (90°)16.7 km/hMostly Cloudy
5:19 PM27 °C23 °C79 %1008.1 hPa16.1 kmEast (100°)16.7 km/hMostly Cloudy
5:21 PM27 °C23 °C79 %1008.1 hPa16.1 kmEast (90°)14.8 km/hMostly Cloudy
5:23 PM27 °C23 °C79 %1008.1 hPa16.1 kmEast (90°)16.7 km/hScattered Clouds
5:33 PM27 °C24 °C84 %1008.1 hPa16.1 kmEast (90°)16.7 km/hMostly Cloudy
5:40 PM27 °C24 °C84 %1008.1 hPa16.1 kmEast (90°)16.7 km/hMostly Cloudy
5:46 PM27 °C23 °C79 %1008.1 hPa16.1 kmEast (90°)16.7 km/hMostly Cloudy
5:55 PM26.6 °C23.3 °C82 %1008.5 hPa16.1 kmEast (80°)16.7 km/hMostly Cloudy
5:56 PM27 °C23 °C79 %1008.5 hPa16.1 kmEast (90°)16.7 km/hScattered Clouds
5:57 PM27 °C23 °C79 %1008.5 hPa16.1 kmEast (100°)16.7 km/hMostly Cloudy
6:00 PM27 °C23 °C79 %1008.5 hPa16.1 kmEast (80°)18.5 km/hMostly Cloudy
6:03 PM26 °C23 °C83 %1008.5 hPa16.1 kmEast (90°)18.5 km/hScattered Clouds
6:07 PM26 °C23 °C83 %1008.5 hPa16.1 kmEast (90°)14.8 km/hMostly Cloudy
6:09 PM26 °C23 °C83 %1008.5 hPa16.1 kmEast (90°)18.5 km/hScattered Clouds
6:18 PM26 °C23 °C83 %1008.5 hPa16.1 kmEast (80°)13 km/hMostly Cloudy
6:21 PM26 °C23 °C83 %1008.5 hPa16.1 kmEast (90°)16.7 km/hScattered Clouds
6:27 PM26 °C23 °C83 %1008.5 hPa16.1 kmEast (80°)13 km/hMostly Cloudy
6:29 PM26 °C23 °C83 %1008.5 hPa16.1 kmEast (90°)16.7 km/hScattered Clouds
6:34 PM26 °C23 °C83 %1008.5 hPa16.1 kmEast (80°)16.7 km/hMostly Cloudy
6:36 PM26 °C23 °C83 %1008.5 hPa16.1 kmEast (80°)16.7 km/hScattered Clouds
6:55 PM25.8 °C23.4 °C87 %1008.8 hPa16.1 kmEast (80°)14.8 km/hScattered Clouds
7:41 PM26 °C24 °C89 %1008.8 hPa16.1 kmEast (80°)16.7 km/hMostly Cloudy
7:50 PM26 °C24 °C89 %1009.1 hPa16.1 kmEast (80°)16.7 km/hScattered Clouds
7:54 PM26 °C24 °C89 %1009.1 hPa16.1 kmEast (80°)18.5 km/hMostly Cloudy
7:55 PM25.8 °C23.5 °C87 %1009.1 hPa16.1 kmEast (80°)20.4 km/hMostly Cloudy
8:01 PM26 °C24 °C89 %1009.1 hPa16.1 kmENE (70°)18.5 km/hScattered Clouds
8:02 PM26 °C24 °C89 %1009.1 hPa16.1 kmEast (80°)18.5 km/hMostly Cloudy
8:09 PM26 °C23 °C83 %1009.1 hPa16.1 kmEast (80°)16.7 km/hScattered Clouds
8:15 PM26 °C23 °C83 %1009.1 hPa16.1 kmEast (80°)14.8 km/hMostly Cloudy
8:18 PM26 °C24 °C89 %1009.5 hPa16.1 kmEast (80°)16.7 km/hScattered Clouds
8:19 PM26 °C23 °C83 %1009.5 hPa16.1 kmEast (80°)18.5 km/hMostly Cloudy
8:23 PM26 °C23 °C83 %1009.5 hPa16.1 kmEast (80°)18.5 km/hScattered Clouds
8:38 PM26 °C23 °C83 %1009.5 hPa16.1 kmEast (80°)16.7 km/hMostly Cloudy
8:41 PM26 °C24 °C89 %1009.5 hPa16.1 kmEast (80°)16.7 km/hMostly Cloudy
8:52 PM26 °C23 °C83 %1009.5 hPa16.1 kmEast (80°)20.4 km/hMostly Cloudy
8:55 PM25.8 °C23.2 °C85 %1009.5 hPa16.1 kmEast (80°)20.4 km/hMostly Cloudy
9:02 PM26 °C23 °C83 %1009.5 hPa16.1 kmEast (80°)22.2 km/hMostly Cloudy
9:04 PM26 °C23 °C83 %1009.8 hPa16.1 kmEast (80°)22.2 km/hScattered Clouds
9:46 PM26 °C23 °C83 %1009.8 hPa16.1 kmEast (90°)18.5 km/hMostly Cloudy
9:47 PM26 °C23 °C83 %1009.8 hPa16.1 kmEast (80°)22.2 km/hMostly Cloudy
9:54 PM26 °C23 °C83 %1009.8 hPa16.1 kmEast (80°)18.5 km/hMostly Cloudy
9:55 PM25.8 °C23.2 °C85 %1009.8 hPa16.1 kmEast (80°)20.4 km/hMostly Cloudy
9:57 PM26 °C23 °C83 %1009.8 hPa16.1 kmEast (90°)18.5 km/hScattered Clouds
10:03 PM26 °C23 °C83 %1009.8 hPa16.1 kmEast (80°)20.4 km/hMostly Cloudy
10:16 PM26 °C23 °C83 %1009.8 hPa16.1 kmEast (80°)22.2 km/hScattered Clouds
10:42 PM26 °C24 °C89 %1010.2 hPa16.1 kmEast (90°)20.4 km/hMostly Cloudy
10:44 PM26 °C24 °C89 %1010.2 hPa16.1 kmEast (80°)14.8 km/hMostly Cloudy
10:55 PM25.8 °C23.7 °C88 %1009.8 hPa16.1 kmEast (80°)20.4 km/hMostly Cloudy
11:24 PM26 °C23 °C83 %1009.8 hPa16.1 kmEast (90°)18.5 km/hScattered Clouds
11:26 PM26 °C23 °C83 %1009.8 hPa16.1 kmEast (90°)20.4 km/hMostly Cloudy
11:27 PM26 °C23 °C83 %1009.8 hPa16.1 kmEast (90°)18.5 km/hMostly Cloudy
11:38 PM26 °C24 °C89 %1009.8 hPa16.1 kmEast (90°)18.5 km/hMostly Cloudy
11:40 PM26 °C23 °C83 %1009.8 hPa16.1 kmEast (80°)20.4 km/hScattered Clouds
11:43 PM26 °C24 °C89 %1009.8 hPa16.1 kmEast (80°)18.5 km/hMostly Cloudy
11:48 PM26 °C24 °C89 %1009.8 hPa16.1 kmEast (80°)18.5 km/hMostly Cloudy
11:55 PM25.7 °C23.5 °C88 %1009.8 hPa16.1 kmEast (90°)20.4 km/hMostly Cloudy
Hourly data recorded from PGUA, located 0 kilometers away from Mangilao, Guam







STORIES FROM OUR PARTNERS